Regional Weather Roundup
Issued by NWS

Home | Current Version | Previous Version | Graphics & Text | Print | Product List | Glossary On
Versions: 1 2 3 4 5 6 7 8 9 10 11 12 13 14 15 16 17 18 19 20 21 22 23 24 25 26 27 28 29 30 31 32 33 34 35 36 37 38 39 40 41 42 43 44 45 46 47 48 49 50
000
ASUS43 KLOT 182006
RWRIL

ILLINOIS REGIONAL WEATHER ROUNDUP
NATIONAL WEATHER SERVICE CHICAGO/ROMEOVILLE IL
300 PM CDT THU SEP 18 2014

NOTE: "FAIR" INDICATES FEW OR NO CLOUDS BELOW 12,000 FEET WITH NO
SIGNIFICANT WEATHER AND/OR OBSTRUCTIONS TO VISIBILITY.

* THESE STATIONS ARE NOT UNDER NWS QUALITY CONTROL. THEY ALSO MAY NOT
  REPORT WEATHER SUCH AS PRECIPITATION OR FOG.

ILZ001-002-007-009-015-016-024-182100-
NORTHWEST ILLINOIS

CITY           SKY/WX    TMP DP  RH WIND       PRES   REMARKS
MOLINE         PTSUNNY   74  52  46 NE5       30.07F
STERLING*      PTSUNNY   72  54  53 SE9       30.09F
SAVANNA*       SUNNY     73  49  43 SE3       30.09F
$$

ILZ003-004-008-010-011-017-018-182100-
NORTH CENTRAL ILLINOIS

CITY           SKY/WX    TMP DP  RH WIND       PRES   REMARKS
ROCKFORD       MOSUNNY   69  53  56 E9        30.13F
FREEPORT*      MOSUNNY   67  54  63 SE5       30.13F
ROCHELLE*      MOSUNNY   71  49  45 E8        30.11F
DE KALB*       MOSUNNY   67  53  58 E10       30.12F
PERU*          SUNNY     72  50  45 SE9G16    30.10F
$$

ILZ005-006-012>014-019>023-182100-
NORTHEAST ILLINOIS

CITY           SKY/WX    TMP DP  RH WIND       PRES   REMARKS
CHICAGO-OHARE  MOSUNNY   68  54  60 E10       30.12F
CHICAGO-MIDWAY MOSUNNY   69  56  62 NE10      30.12S
AURORA         MOSUNNY   71  53  52 NE12      30.11F
LANSING*       SUNNY     69  49  50 NE12      30.12S
JOLIET*        MOSUNNY   70  50  49 NE9       30.11S
WAUKEGAN       CLOUDY    60  53  77 NE12      30.14F
DUPAGE AIRPORT PTSUNNY   71  53  52 E8        30.11F
KANKAKEE*      SUNNY     71  49  45 NE9       30.10F
WHEELING       SUNNY     67  55  65 NE8       30.15F
MORRIS*        PTSUNNY   73  53  49 E8        30.10S
ROMEOVILLE*    MOSUNNY   71  50  47 E12       30.11S
NORTHERLY ISL    N/A     64  57  78 N13         N/A
$$

LMZ740>746-182100-
SOUTHERN LAKE MICHIGAN

STATION/POSITION SKY/WX   TEMP    WIND        PRES    VSBY  WAVE
                          AIR SEA DIR/SP/G                  HT/PER
                          (F)     (DEG/KT/KT) (MB)    (MI)  (FT/S)
SOUTHERN BUOY              63 66   30/  2/  2 1020.6F         2/ 7
WAUKEGAN HARBOR            58      20/ 16/ 17   N/A
HARRISON CRIB              61      10/ 12/ 14   N/A
BURNHAM HARBOR             64     340/ 11/ 13   N/A
CALUMET HARBOR             63     360/  8/ 11 1019.1R
MICHIGAN CITY              63     350/ 15/ 16   N/A
MICHIGAN CITY 6N           63 65   10/ 12/ 14   N/A           2/ 2
ST. JOSEPH                 64 67  360/ 12/ 16   N/A           2/ 2
$$

ILZ025>027-034>036-040-047-049-050-058-095>099-182100-
WEST-CENTRAL ILLINOIS

CITY           SKY/WX    TMP DP  RH WIND       PRES   REMARKS
QUINCY         PTSUNNY   73  54  51 E13G22    30.04F
GALESBURG*     SUNNY     75  54  46 SE6       30.07F
MACOMB*        SUNNY     74  52  46 E7        30.08F
JACKSONVILLE*  SUNNY     77  52  41 SE10      30.05F
PITTSFIELD*    SUNNY     75  51  43 NE5       30.06S
$$

ILZ028>032-037-038-041>044-048-051>054-059>061-182100-
CENTRAL ILLINOIS

CITY           SKY/WX    TMP DP  RH WIND       PRES   REMARKS
PONTIAC        SUNNY     75  46  35 NE7       30.09F
DECATUR        SUNNY     74  52  46 NE10      30.06F
PEORIA         SUNNY     74  50  42 E6        30.07F
LACON*         SUNNY     72  48  42 E6        30.07F
LINCOLN*       SUNNY     76  49  38 SE3       30.03F
SPRINGFIELD    SUNNY     76  51  41 E9        30.05F
TAYLORVILLE    SUNNY     73  48  40 E6        30.05F
$$

ILZ033-039-045-046-055>057-062-063-182100-
EAST-CENTRAL ILLINOIS

CITY           SKY/WX    TMP DP  RH WIND       PRES   REMARKS
CHAMPAIGN      SUNNY     73  46  38 NE8       30.07F
DANVILLE*      SUNNY     71  44  37 E6        30.06F
RANTOUL*       SUNNY     74  42  32 NE13      30.08F
MATTOON        SUNNY     73  48  41 NE9       30.05F
PARIS*         SUNNY     73  44  34 CALM      30.07F
$$

ILZ079-100>102-182100-
SOUTHWEST ILLINOIS

CITY           SKY/WX    TMP DP  RH WIND       PRES   REMARKS
ALTON          MOSUNNY   73  48  40 E12       30.04F
BELLEVILLE     MOSUNNY   75  53  47 NE10      30.02F
CAHOKIA*       MOSUNNY   75  55  49 E9        30.03F
SPARTA*        SUNNY     73  56  55 E8        30.03F
$$

ILZ064>066-069>071-074>076-080>082-084>086-088>090-092>094-182100-
SOUTH-CENTRAL ILLINOIS

CITY           SKY/WX    TMP DP  RH WIND       PRES   REMARKS
CARBONDALE     MOSUNNY   74  57  55 NE6       30.01F
CAIRO*         MOSUNNY   77  60  55 E8        29.99F
EFFINGHAM*     SUNNY     75  46  35 E6        30.05F
MARION         MOSUNNY   75  59  57 SE5       30.02F
MT. VERNON     SUNNY     73  54  49 NE9       30.04F
CENTRALIA*     SUNNY     74  51  44 E6        30.04F
SALEM*         SUNNY     75  55  50 E3        30.05S
METROPOLIS*    MOSUNNY   77  58  52 NE7       29.99F
$$

ILZ067-068-072-073-078-083-087-091-182100-
SOUTHEAST ILLINOIS

CITY           SKY/WX    TMP DP  RH WIND       PRES   REMARKS
LAWRENCEVILLE  MOSUNNY   74  52  46 SE8       30.05F
FLORA*         SUNNY     74  51  43 NE8       30.05S
FAIRFIELD*     SUNNY    N/A N/A N/A NE8       30.03F
HARRISBURG*    SUNNY     74  52  45 E7        30.03F
ROBINSON*      SUNNY     76  56  50 NE8       30.06F
CARMI*         SUNNY     78  52  40 NE10      30.03S
$$

ABBREVIATIONS USED IN REMARKS
   TC - TEMPERATURE IN CELSIUS
  WCI - WIND CHILL INDEX
   HX - HEAT INDEX
  VSB - VISIBILITY
$$




USA.gov is the U.S. government's official web portal to all federal, state and local government web resources and services.